Time,TemperatureF,DewpointF,PressureIn,WindDirection,WindDirectionDegrees,WindSpeedMPH,WindSpeedGustMPH,Humidity,HourlyPrecipIn,Conditions,Clouds,dailyrainin,SoftwareType,DateUTC
2013-08-09 00:01:00,72.9,71.7,29.84,North,5,0.0,1.0,96,0.00,,SCT024,0.02,VWS V13.01,2013-08-09 04:01:00,
2013-08-09 00:02:00,72.9,71.7,29.84,North,5,0.0,1.0,96,0.00,,SCT024,0.00,VWS V13.01,2013-08-09 04:02:00,
2013-08-09 00:03:00,72.9,71.7,29.84,North,5,0.0,0.0,96,0.00,,SCT024,0.00,VWS V13.01,2013-08-09 04:03:00,
2013-08-09 00:08:00,72.8,71.6,29.84,North,5,0.0,0.0,96,0.00,,SCT024,0.00,VWS V13.01,2013-08-09 04:08:00,
2013-08-09 00:13:00,72.7,71.5,29.84,North,5,0.0,1.0,96,0.00,,SCT024,0.00,VWS V13.01,2013-08-09 04:13:00,
2013-08-09 00:18:00,72.6,71.4,29.84,North,5,0.0,1.0,96,0.00,,BKN024,0.00,VWS V13.01,2013-08-09 04:18:00,
2013-08-09 00:23:00,72.5,71.3,29.84,North,5,0.0,1.0,96,0.00,,BKN024,0.00,VWS V13.01,2013-08-09 04:23:00,
2013-08-09 00:28:00,72.4,71.2,29.84,North,5,0.0,1.0,96,0.00,,BKN024,0.00,VWS V13.01,2013-08-09 04:28:00,
2013-08-09 00:33:00,72.3,71.1,29.84,North,5,0.0,0.0,96,0.00,,BKN024,0.00,VWS V13.01,2013-08-09 04:33:00,
2013-08-09 00:38:00,72.3,71.1,29.84,North,5,0.0,0.0,96,0.00,,BKN024,0.00,VWS V13.01,2013-08-09 04:38:00,
2013-08-09 00:43:00,72.2,71.0,29.84,North,5,0.0,0.0,96,0.00,,BKN024,0.00,VWS V13.01,2013-08-09 04:43:00,
2013-08-09 00:48:00,72.2,71.0,29.84,North,5,0.0,0.0,96,0.00,,BKN024,0.00,VWS V13.01,2013-08-09 04:48:00,
2013-08-09 00:53:00,72.1,70.9,29.83,North,5,0.0,0.0,96,0.00,,BKN024,0.00,VWS V13.01,2013-08-09 04:53:00,
2013-08-09 00:58:00,72.1,70.9,29.83,North,5,0.0,0.0,96,0.00,,BKN024,0.00,VWS V13.01,2013-08-09 04:58:00,
2013-08-09 01:03:00,72.1,70.9,29.83,North,5,0.0,0.0,96,0.00,,BKN024,0.00,VWS V13.01,2013-08-09 05:03:00,
2013-08-09 01:08:00,72.1,70.9,29.83,North,5,0.0,0.0,96,0.00,,BKN024,0.00,VWS V13.01,2013-08-09 05:08:00,
2013-08-09 01:13:00,72.1,70.9,29.83,North,5,0.0,0.0,96,0.00,,BKN024,0.00,VWS V13.01,2013-08-09 05:13:00,
2013-08-09 01:18:00,72.0,71.1,29.83,North,5,0.0,0.0,97,0.00,,OVC024,0.00,VWS V13.01,2013-08-09 05:18:00,
2013-08-09 01:23:00,72.0,71.1,29.83,North,5,0.0,0.0,97,0.00,,OVC024,0.00,VWS V13.01,2013-08-09 05:23:00,
2013-08-09 01:28:00,72.0,71.1,29.82,North,5,0.0,0.0,97,0.00,,OVC024,0.00,VWS V13.01,2013-08-09 05:28:00,
2013-08-09 01:33:00,71.9,71.0,29.82,North,5,0.0,0.0,97,0.00,,OVC024,0.00,VWS V13.01,2013-08-09 05:33:00,
2013-08-09 01:38:00,71.9,71.0,29.82,North,5,0.0,0.0,97,0.00,,OVC024,0.00,VWS V13.01,2013-08-09 05:38:00,
2013-08-09 01:43:00,71.9,71.0,29.81,North,5,0.0,0.0,97,0.00,,OVC024,0.00,VWS V13.01,2013-08-09 05:43:00,
2013-08-09 01:48:00,71.8,70.6,29.81,North,5,0.0,0.0,96,0.00,,OVC010,0.00,VWS V13.01,2013-08-09 05:48:00,
2013-08-09 01:53:00,71.7,70.5,29.82,North,5,0.0,0.0,96,0.00,,OVC010,0.00,VWS V13.01,2013-08-09 05:53:00,
2013-08-09 01:58:00,71.7,70.8,29.81,North,5,0.0,0.0,97,0.00,,OVC010,0.00,VWS V13.01,2013-08-09 05:58:00,
2013-08-09 02:03:00,71.7,70.8,29.81,North,5,0.0,0.0,97,0.00,,BKN010,0.00,VWS V13.01,2013-08-09 06:03:00,
2013-08-09 02:08:00,71.7,70.8,29.81,North,5,0.0,0.0,97,0.00,,BKN010,0.00,VWS V13.01,2013-08-09 06:08:00,
2013-08-09 02:13:00,71.7,70.8,29.81,North,5,0.0,0.0,97,0.00,,BKN010,0.00,VWS V13.01,2013-08-09 06:13:00,
2013-08-09 02:18:00,71.6,70.7,29.82,North,5,0.0,0.0,97,0.00,,FEW012,0.00,VWS V13.01,2013-08-09 06:18:00,
2013-08-09 02:23:00,71.6,70.7,29.82,North,5,0.0,0.0,97,0.00,,FEW012,0.00,VWS V13.01,2013-08-09 06:23:00,
2013-08-09 02:28:00,71.6,70.7,29.82,North,5,0.0,0.0,97,0.00,,FEW012,0.00,VWS V13.01,2013-08-09 06:28:00,
2013-08-09 02:33:00,71.5,70.6,29.82,North,5,0.0,0.0,97,0.00,,BKN012,0.00,VWS V13.01,2013-08-09 06:33:00,
2013-08-09 02:38:00,71.5,70.6,29.82,North,5,0.0,0.0,97,0.00,,BKN012,0.00,VWS V13.01,2013-08-09 06:38:00,
2013-08-09 02:43:00,71.5,70.6,29.82,North,5,0.0,0.0,97,0.00,,BKN012,0.00,VWS V13.01,2013-08-09 06:43:00,
2013-08-09 02:48:00,71.5,70.6,29.81,North,5,0.0,0.0,97,0.00,,BKN012,0.00,VWS V13.01,2013-08-09 06:48:00,
2013-08-09 02:53:00,71.5,70.6,29.81,North,5,0.0,0.0,97,0.00,,BKN012,0.00,VWS V13.01,2013-08-09 06:53:00,
2013-08-09 02:58:00,71.4,70.5,29.81,North,5,0.0,0.0,97,0.00,,BKN012,0.00,VWS V13.01,2013-08-09 06:58:00,
2013-08-09 03:03:00,71.4,70.5,29.81,North,5,0.0,0.0,97,0.00,,OVC014,0.00,VWS V13.01,2013-08-09 07:03:00,
2013-08-09 03:08:00,71.4,70.5,29.81,North,5,0.0,0.0,97,0.00,,OVC014,0.00,VWS V13.01,2013-08-09 07:08:00,
2013-08-09 03:13:00,71.3,70.4,29.81,North,5,0.0,0.0,97,0.00,,OVC014,0.00,VWS V13.01,2013-08-09 07:13:00,
2013-08-09 03:18:00,71.3,70.4,29.81,North,5,0.0,0.0,97,0.00,,OVC029,0.00,VWS V13.01,2013-08-09 07:18:00,
2013-08-09 03:23:00,71.3,70.4,29.81,North,5,0.0,0.0,97,0.00,,OVC029,0.00,VWS V13.01,2013-08-09 07:23:00,
2013-08-09 03:28:00,71.3,70.4,29.81,North,5,0.0,0.0,97,0.00,,OVC029,0.00,VWS V13.01,2013-08-09 07:28:00,
2013-08-09 03:33:00,71.3,70.4,29.81,North,5,0.0,0.0,97,0.00,,OVC029,0.00,VWS V13.01,2013-08-09 07:33:00,
2013-08-09 03:38:00,71.3,70.4,29.82,North,5,0.0,0.0,97,0.00,,OVC029,0.00,VWS V13.01,2013-08-09 07:38:00,
2013-08-09 03:43:00,71.3,70.4,29.82,North,5,0.0,1.0,97,0.00,,OVC029,0.00,VWS V13.01,2013-08-09 07:43:00,
2013-08-09 03:48:00,71.3,70.4,29.82,North,5,0.0,1.0,97,0.00,,OVC035,0.00,VWS V13.01,2013-08-09 07:48:00,
2013-08-09 03:53:00,71.3,70.4,29.82,North,5,0.0,1.0,97,0.00,,OVC035,0.00,VWS V13.01,2013-08-09 07:53:00,
2013-08-09 03:58:00,71.3,70.4,29.82,North,5,0.0,1.0,97,0.00,,OVC035,0.00,VWS V13.01,2013-08-09 07:58:00,
2013-08-09 04:03:00,71.2,70.3,29.82,North,5,0.0,0.0,97,0.00,,OVC040,0.00,VWS V13.01,2013-08-09 08:03:00,
2013-08-09 04:08:00,71.2,70.3,29.82,North,5,0.0,0.0,97,0.00,,OVC040,0.00,VWS V13.01,2013-08-09 08:08:00,
2013-08-09 04:13:00,71.2,70.3,29.82,North,5,0.0,0.0,97,0.00,,OVC040,0.00,VWS V13.01,2013-08-09 08:13:00,
2013-08-09 04:18:00,71.1,70.2,29.82,North,5,0.0,1.0,97,0.00,,OVC043,0.00,VWS V13.01,2013-08-09 08:18:00,
2013-08-09 04:23:00,71.1,70.2,29.82,North,5,0.0,1.0,97,0.00,,OVC043,0.00,VWS V13.01,2013-08-09 08:23:00,
2013-08-09 04:28:00,71.0,70.1,29.81,North,5,0.0,1.0,97,0.00,,OVC043,0.00,VWS V13.01,2013-08-09 08:28:00,
2013-08-09 04:33:00,71.0,70.1,29.81,North,5,0.0,0.0,97,0.00,,OVC043,0.00,VWS V13.01,2013-08-09 08:33:00,
2013-08-09 04:38:00,70.9,70.0,29.81,North,5,0.0,0.0,97,0.01,,OVC043,0.01,VWS V13.01,2013-08-09 08:38:00,
2013-08-09 04:43:00,71.0,70.1,29.81,North,5,0.0,0.0,97,0.01,,OVC043,0.01,VWS V13.01,2013-08-09 08:43:00,
2013-08-09 04:48:00,70.9,70.0,29.81,North,5,0.0,0.0,97,0.03,,-RA,0.04,VWS V13.01,2013-08-09 08:48:00,
2013-08-09 04:53:00,70.8,69.9,29.81,North,5,0.0,0.0,97,0.04,,-RA,0.04,VWS V13.01,2013-08-09 08:53:00,
2013-08-09 04:58:00,70.8,69.9,29.81,North,5,0.0,0.0,97,0.04,,-RA,0.04,VWS V13.01,2013-08-09 08:58:00,
2013-08-09 05:03:00,70.8,69.9,29.81,North,5,0.0,1.0,97,0.04,,-RA,0.04,VWS V13.01,2013-08-09 09:03:00,
2013-08-09 05:08:00,70.4,69.5,29.81,North,5,0.0,2.0,97,0.04,,-RA,0.04,VWS V13.01,2013-08-09 09:08:00,
2013-08-09 05:13:00,69.9,69.0,29.81,West,264,1.0,5.0,97,0.04,,-RA,0.04,VWS V13.01,2013-08-09 09:13:00,
2013-08-09 05:18:00,69.4,68.5,29.81,ENE,57,2.0,5.0,97,0.04,,-RA,0.04,VWS V13.01,2013-08-09 09:18:00,
2013-08-09 05:23:00,69.1,68.2,29.82,ENE,57,0.0,5.0,97,0.04,,-RA,0.04,VWS V13.01,2013-08-09 09:23:00,
2013-08-09 05:28:00,69.0,68.1,29.82,NNE,17,1.0,5.0,97,0.04,,-RA,0.04,VWS V13.01,2013-08-09 09:28:00,
2013-08-09 05:33:00,68.8,67.9,29.82,NNE,16,1.0,1.0,97,0.04,,-RA,0.04,VWS V13.01,2013-08-09 09:33:00,
2013-08-09 05:38:00,68.5,67.6,29.82,NNE,16,0.0,3.0,97,0.04,,-RA,0.04,VWS V13.01,2013-08-09 09:38:00,
2013-08-09 05:43:00,68.5,67.6,29.82,NNE,16,0.0,3.0,97,0.04,,-RA,0.04,VWS V13.01,2013-08-09 09:43:00,
2013-08-09 05:48:00,68.3,67.4,29.83,NNE,16,0.0,3.0,97,0.04,,OVC010,0.04,VWS V13.01,2013-08-09 09:48:00,
2013-08-09 05:53:00,68.0,67.1,29.83,North,350,1.0,5.0,97,0.04,,OVC010,0.04,VWS V13.01,2013-08-09 09:53:00,
2013-08-09 05:58:00,67.7,66.8,29.83,North,351,0.0,5.0,97,0.04,,OVC010,0.04,VWS V13.01,2013-08-09 09:58:00,
2013-08-09 06:03:00,67.3,66.1,29.83,NNE,15,0.0,4.0,96,0.00,,OVC010,0.04,VWS V13.01,2013-08-09 10:03:00,
2013-08-09 06:08:00,67.0,66.1,29.83,NNE,15,0.0,4.0,97,0.00,,OVC010,0.04,VWS V13.01,2013-08-09 10:08:00,
2013-08-09 06:13:00,66.8,65.9,29.83,NE,56,0.0,4.0,97,0.00,,OVC010,0.04,VWS V13.01,2013-08-09 10:13:00,
2013-08-09 06:18:00,66.7,65.5,29.83,NE,56,0.0,4.0,96,0.00,,OVC010,0.04,VWS V13.01,2013-08-09 10:18:00,
2013-08-09 06:23:00,66.5,65.6,29.83,North,360,0.0,4.0,97,0.00,,OVC010,0.04,VWS V13.01,2013-08-09 10:23:00,
2013-08-09 06:28:00,66.4,65.5,29.83,North,360,0.0,4.0,97,0.00,,OVC010,0.04,VWS V13.01,2013-08-09 10:28:00,
2013-08-09 06:33:00,66.3,65.4,29.83,North,360,0.0,2.0,97,0.00,,OVC010,0.04,VWS V13.01,2013-08-09 10:33:00,
2013-08-09 06:38:00,66.2,65.3,29.83,North,360,0.0,2.0,97,0.00,,OVC010,0.04,VWS V13.01,2013-08-09 10:38:00,
2013-08-09 06:43:00,66.1,65.2,29.83,NE,49,0.0,4.0,97,0.00,,OVC010,0.04,VWS V13.01,2013-08-09 10:43:00,
2013-08-09 06:48:00,66.1,65.2,29.83,NE,49,0.0,4.0,97,0.00,,OVC010,0.04,VWS V13.01,2013-08-09 10:48:00,
2013-08-09 06:53:00,66.0,65.1,29.83,NNW,330,0.0,4.0,97,0.00,,OVC010,0.04,VWS V13.01,2013-08-09 10:53:00,
2013-08-09 06:58:00,65.9,65.0,29.83,NNW,330,0.0,4.0,97,0.00,,OVC010,0.04,VWS V13.01,2013-08-09 10:58:00,
2013-08-09 07:03:00,65.9,65.0,29.83,NNW,330,0.0,1.0,97,0.00,,,0.04,VWS V13.01,2013-08-09 11:03:00,
2013-08-09 07:08:00,65.9,65.0,29.83,NNW,330,0.0,1.0,97,0.00,,,0.04,VWS V13.01,2013-08-09 11:08:00,
2013-08-09 07:13:00,65.9,65.0,29.83,ENE,63,1.0,3.0,97,0.00,,,0.04,VWS V13.01,2013-08-09 11:13:00,
2013-08-09 07:18:00,65.9,65.0,29.83,NE,53,0.0,5.0,97,0.00,,,0.04,VWS V13.01,2013-08-09 11:18:00,
2013-08-09 07:23:00,65.9,65.0,29.83,NE,35,2.0,5.0,97,0.00,,,0.04,VWS V13.01,2013-08-09 11:23:00,
2013-08-09 07:29:00,65.9,65.0,29.83,ENE,65,1.0,5.0,97,0.00,,,0.04,VWS V13.01,2013-08-09 11:29:00,
2013-08-09 07:34:00,65.9,65.0,29.83,ENE,61,1.0,3.0,97,0.00,,,0.04,VWS V13.01,2013-08-09 11:34:00,
2013-08-09 07:39:00,65.8,64.9,29.83,ENE,67,1.0,3.0,97,0.00,,,0.04,VWS V13.01,2013-08-09 11:39:00,
2013-08-09 07:44:00,65.9,65.0,29.83,ENE,67,0.0,3.0,97,0.00,,,0.04,VWS V13.01,2013-08-09 11:44:00,
2013-08-09 07:49:00,65.9,65.0,29.84,ENE,67,0.0,3.0,97,0.00,,,0.04,VWS V13.01,2013-08-09 11:49:00,
2013-08-09 07:54:00,65.9,65.0,29.84,ENE,67,0.0,3.0,97,0.00,,,0.04,VWS V13.01,2013-08-09 11:54:00,
2013-08-09 07:59:00,65.9,65.0,29.84,ENE,67,0.0,3.0,97,0.01,,,0.05,VWS V13.01,2013-08-09 11:59:00,
2013-08-09 08:04:00,66.0,65.1,29.84,ENE,67,0.0,3.0,97,0.01,,-RA,0.05,VWS V13.01,2013-08-09 12:04:00,
2013-08-09 08:09:00,66.0,65.1,29.84,ENE,63,0.0,3.0,97,0.01,,-RA,0.05,VWS V13.01,2013-08-09 12:09:00,
2013-08-09 08:14:00,66.0,65.1,29.84,ENE,63,1.0,3.0,97,0.01,,-RA,0.05,VWS V13.01,2013-08-09 12:14:00,
2013-08-09 08:19:00,66.0,65.1,29.84,ENE,63,0.0,3.0,97,0.01,,-RA,0.05,VWS V13.01,2013-08-09 12:19:00,
2013-08-09 08:24:00,66.1,65.2,29.84,ENE,63,0.0,3.0,97,0.01,,-RA,0.05,VWS V13.01,2013-08-09 12:24:00,
2013-08-09 08:29:00,66.1,65.2,29.84,ENE,63,0.0,3.0,97,0.01,,-RA,0.05,VWS V13.01,2013-08-09 12:29:00,
2013-08-09 08:34:00,66.1,65.2,29.84,ENE,63,0.0,2.0,97,0.01,,-RA,0.05,VWS V13.01,2013-08-09 12:34:00,
2013-08-09 08:39:00,66.0,65.1,29.84,ENE,62,1.0,3.0,97,0.01,,-RA,0.05,VWS V13.01,2013-08-09 12:39:00,
2013-08-09 08:44:00,66.0,65.1,29.84,ENE,62,0.0,3.0,97,0.01,,-RA,0.05,VWS V13.01,2013-08-09 12:44:00,
2013-08-09 08:49:00,66.0,65.1,29.84,ENE,62,0.0,3.0,97,0.01,,-RA,0.05,VWS V13.01,2013-08-09 12:49:00,
2013-08-09 08:54:00,66.0,65.1,29.84,ENE,62,0.0,3.0,97,0.01,,-RA,0.05,VWS V13.01,2013-08-09 12:54:00,
2013-08-09 08:59:00,66.0,65.1,29.84,ENE,62,0.0,3.0,97,0.01,,-RA,0.05,VWS V13.01,2013-08-09 12:59:00,
2013-08-09 09:04:00,66.0,65.1,29.84,ENE,62,2.0,2.0,97,0.00,,OVC006,0.05,VWS V13.01,2013-08-09 13:04:00,
2013-08-09 09:09:00,66.1,65.2,29.84,ENE,62,0.0,2.0,97,0.00,,OVC006,0.05,VWS V13.01,2013-08-09 13:09:00,
2013-08-09 09:14:00,66.1,65.2,29.84,ENE,62,0.0,2.0,97,0.00,,OVC006,0.05,VWS V13.01,2013-08-09 13:14:00,
2013-08-09 09:19:00,66.1,65.2,29.85,ENE,62,0.0,2.0,97,0.00,,OVC006,0.05,VWS V13.01,2013-08-09 13:19:00,
2013-08-09 09:24:00,66.2,65.3,29.84,ENE,62,0.0,2.0,97,0.00,,OVC006,0.05,VWS V13.01,2013-08-09 13:24:00,
2013-08-09 09:29:00,66.2,65.3,29.84,ENE,62,0.0,2.0,97,0.00,,OVC006,0.05,VWS V13.01,2013-08-09 13:29:00,
2013-08-09 09:34:00,66.2,65.3,29.85,ENE,62,0.0,0.0,97,0.00,,OVC006,0.05,VWS V13.01,2013-08-09 13:34:00,
2013-08-09 09:39:00,66.3,65.4,29.85,ENE,62,0.0,2.0,97,0.00,,OVC006,0.05,VWS V13.01,2013-08-09 13:39:00,
2013-08-09 09:44:00,66.4,65.5,29.85,ENE,62,0.0,2.0,97,0.00,,OVC006,0.05,VWS V13.01,2013-08-09 13:44:00,
2013-08-09 09:49:00,66.4,65.5,29.85,ENE,62,1.0,2.0,97,0.00,,OVC006,0.05,VWS V13.01,2013-08-09 13:49:00,
2013-08-09 09:54:00,66.5,65.6,29.85,ENE,62,0.0,2.0,97,0.00,,OVC006,0.05,VWS V13.01,2013-08-09 13:54:00,
2013-08-09 09:59:00,66.5,65.6,29.85,ENE,62,0.0,2.0,97,0.00,,OVC006,0.05,VWS V13.01,2013-08-09 13:59:00,
2013-08-09 10:04:00,66.6,65.7,29.85,ENE,62,0.0,1.0,97,0.00,,OVC008,0.05,VWS V13.01,2013-08-09 14:04:00,
2013-08-09 10:09:00,66.7,65.8,29.85,ENE,62,0.0,2.0,97,0.00,,OVC008,0.05,VWS V13.01,2013-08-09 14:09:00,
2013-08-09 10:14:00,66.6,65.7,29.85,North,11,0.0,3.0,97,0.00,,OVC008,0.05,VWS V13.01,2013-08-09 14:14:00,
2013-08-09 10:19:00,66.5,65.6,29.86,NNW,347,0.0,3.0,97,0.00,,OVC008,0.05,VWS V13.01,2013-08-09 14:19:00,
2013-08-09 10:24:00,66.6,65.7,29.86,NNW,347,0.0,3.0,97,0.00,,OVC008,0.05,VWS V13.01,2013-08-09 14:24:00,
2013-08-09 10:29:00,66.5,65.6,29.86,NNW,347,2.0,3.0,97,0.00,,OVC008,0.05,VWS V13.01,2013-08-09 14:29:00,
2013-08-09 10:34:00,66.3,65.4,29.86,NNW,347,2.0,2.0,97,0.00,,OVC008,0.05,VWS V13.01,2013-08-09 14:34:00,
2013-08-09 10:39:00,66.3,65.4,29.86,NNW,347,0.0,3.0,97,0.00,,OVC008,0.05,VWS V13.01,2013-08-09 14:39:00,
2013-08-09 10:44:00,66.3,65.4,29.86,NNW,347,0.0,3.0,97,0.00,,OVC008,0.05,VWS V13.01,2013-08-09 14:44:00,
2013-08-09 10:49:00,66.2,65.3,29.85,NNE,25,1.0,3.0,97,0.00,,OVC008,0.05,VWS V13.01,2013-08-09 14:49:00,
2013-08-09 10:54:00,66.1,65.2,29.85,NNE,24,0.0,3.0,97,0.00,,OVC008,0.05,VWS V13.01,2013-08-09 14:54:00,
2013-08-09 10:59:00,66.1,65.2,29.85,NNE,24,0.0,3.0,97,0.00,,OVC008,0.05,VWS V13.01,2013-08-09 14:59:00,
2013-08-09 11:04:00,66.2,65.3,29.86,NNE,33,1.0,3.0,97,0.00,,OVC010,0.05,VWS V13.01,2013-08-09 15:04:00,
2013-08-09 11:09:00,66.1,65.2,29.86,NE,36,0.0,3.0,97,0.00,,OVC010,0.05,VWS V13.01,2013-08-09 15:09:00,
2013-08-09 11:14:00,66.2,65.3,29.86,NE,46,0.0,3.0,97,0.00,,OVC010,0.05,VWS V13.01,2013-08-09 15:14:00,
2013-08-09 11:19:00,66.3,65.4,29.85,NE,46,1.0,3.0,97,0.00,,OVC010,0.05,VWS V13.01,2013-08-09 15:19:00,
2013-08-09 11:24:00,66.6,65.7,29.86,NE,46,2.0,3.0,97,0.00,,OVC010,0.05,VWS V13.01,2013-08-09 15:24:00,
2013-08-09 11:29:00,66.7,65.8,29.86,NE,46,1.0,3.0,97,0.00,,OVC010,0.05,VWS V13.01,2013-08-09 15:29:00,
2013-08-09 11:34:00,66.8,65.9,29.86,NE,46,1.0,1.0,97,0.00,,OVC010,0.05,VWS V13.01,2013-08-09 15:34:00,
2013-08-09 11:39:00,67.0,65.8,29.86,NE,46,0.0,2.0,96,0.00,,OVC010,0.05,VWS V13.01,2013-08-09 15:39:00,
2013-08-09 11:44:00,67.1,65.9,29.86,NE,46,0.0,2.0,96,0.00,,OVC010,0.05,VWS V13.01,2013-08-09 15:44:00,
2013-08-09 11:49:00,67.4,66.2,29.86,NE,46,1.0,2.0,96,0.00,,OVC010,0.05,VWS V13.01,2013-08-09 15:49:00,
2013-08-09 11:54:00,67.6,66.4,29.86,NE,46,1.0,2.0,96,0.00,,OVC010,0.05,VWS V13.01,2013-08-09 15:54:00,
2013-08-09 11:59:00,68.0,66.8,29.87,NE,46,1.0,2.0,96,0.00,,OVC010,0.05,VWS V13.01,2013-08-09 15:59:00,
2013-08-09 12:04:00,68.0,66.5,29.86,West,281,1.0,3.0,95,0.00,,OVC010,0.05,VWS V13.01,2013-08-09 16:04:00,
2013-08-09 12:09:00,68.2,66.7,29.86,NW,309,0.0,3.0,95,0.00,,OVC010,0.05,VWS V13.01,2013-08-09 16:09:00,
2013-08-09 12:14:00,68.4,66.6,29.86,West,269,0.0,4.0,94,0.00,,OVC010,0.05,VWS V13.01,2013-08-09 16:14:00,
2013-08-09 12:19:00,68.5,66.7,29.87,West,272,0.0,4.0,94,0.00,,OVC010,0.05,VWS V13.01,2013-08-09 16:19:00,
2013-08-09 12:24:00,68.6,66.5,29.87,West,272,0.0,4.0,93,0.00,,OVC010,0.05,VWS V13.01,2013-08-09 16:24:00,
2013-08-09 12:29:00,68.8,66.7,29.87,West,274,0.0,4.0,93,0.00,,OVC010,0.05,VWS V13.01,2013-08-09 16:29:00,
2013-08-09 12:34:00,68.9,66.5,29.88,North,5,2.0,6.0,92,0.00,,OVC010,0.05,VWS V13.01,2013-08-09 16:34:00,
2013-08-09 12:39:00,69.1,66.4,29.88,NW,324,0.0,6.0,91,0.00,,OVC010,0.05,VWS V13.01,2013-08-09 16:39:00,
2013-08-09 12:44:00,69.4,66.3,29.87,North,5,0.0,6.0,90,0.00,,OVC010,0.05,VWS V13.01,2013-08-09 16:44:00,
2013-08-09 12:49:00,69.5,65.8,29.87,NNW,342,1.0,9.0,88,0.00,,OVC010,0.05,VWS V13.01,2013-08-09 16:49:00,
2013-08-09 12:54:00,69.8,66.1,29.87,WNW,291,1.0,9.0,88,0.00,,OVC010,0.05,VWS V13.01,2013-08-09 16:54:00,
2013-08-09 12:59:00,69.8,66.1,29.87,North,355,1.0,9.0,88,0.00,,OVC010,0.05,VWS V13.01,2013-08-09 16:59:00,
2013-08-09 13:04:00,70.1,66.1,29.87,West,274,0.0,5.0,87,0.00,,BKN024,0.05,VWS V13.01,2013-08-09 17:04:00,
2013-08-09 13:09:00,70.2,66.2,29.87,North,11,0.0,5.0,87,0.00,,BKN024,0.05,VWS V13.01,2013-08-09 17:09:00,
2013-08-09 13:14:00,70.4,66.7,29.87,North,9,0.0,5.0,88,0.00,,BKN024,0.05,VWS V13.01,2013-08-09 17:14:00,
2013-08-09 13:19:00,70.5,66.1,29.87,NNW,336,0.0,5.0,86,0.00,,FEW016,0.05,VWS V13.01,2013-08-09 17:19:00,
2013-08-09 13:24:00,70.5,66.1,29.87,North,355,1.0,6.0,86,0.00,,FEW016,0.05,VWS V13.01,2013-08-09 17:24:00,
2013-08-09 13:29:00,70.7,66.3,29.87,North,360,2.0,6.0,86,0.00,,FEW016,0.05,VWS V13.01,2013-08-09 17:29:00,
2013-08-09 13:34:00,70.8,65.7,29.87,West,264,0.0,3.0,84,0.00,,FEW016,0.05,VWS V13.01,2013-08-09 17:34:00,
2013-08-09 13:39:00,70.9,66.2,29.87,West,269,0.0,4.0,85,0.00,,FEW016,0.05,VWS V13.01,2013-08-09 17:39:00,
2013-08-09 13:44:00,71.0,66.3,29.87,West,265,1.0,4.0,85,0.00,,FEW016,0.05,VWS V13.01,2013-08-09 17:44:00,
2013-08-09 13:49:00,71.2,66.1,29.87,WSW,247,2.0,4.0,84,0.00,,FEW016,0.05,VWS V13.01,2013-08-09 17:49:00,
2013-08-09 13:54:00,71.2,66.1,29.87,North,355,0.0,4.0,84,0.00,,FEW016,0.05,VWS V13.01,2013-08-09 17:54:00,
2013-08-09 13:59:00,71.4,66.0,29.87,NNE,13,0.0,4.0,83,0.00,,FEW016,0.05,VWS V13.01,2013-08-09 17:59:00,
2013-08-09 14:04:00,71.7,66.6,29.88,WNW,292,2.0,3.0,84,0.00,,CLR,0.05,VWS V13.01,2013-08-09 18:04:00,
2013-08-09 14:09:00,71.9,66.1,29.87,NNE,28,2.0,4.0,82,0.00,,CLR,0.05,VWS V13.01,2013-08-09 18:09:00,
2013-08-09 14:14:00,72.0,66.2,29.87,North,350,0.0,6.0,82,0.00,,CLR,0.05,VWS V13.01,2013-08-09 18:14:00,
2013-08-09 14:19:00,72.1,65.9,29.87,NW,315,1.0,6.0,81,0.00,,CLR,0.05,VWS V13.01,2013-08-09 18:19:00,
2013-08-09 14:24:00,72.0,65.5,29.87,WNW,293,0.0,6.0,80,0.00,,CLR,0.05,VWS V13.01,2013-08-09 18:24:00,
2013-08-09 14:29:00,72.1,65.9,29.87,WNW,297,3.0,6.0,81,0.00,,CLR,0.05,VWS V13.01,2013-08-09 18:29:00,
2013-08-09 14:34:00,72.0,65.5,29.87,NW,319,0.0,7.0,80,0.00,,CLR,0.05,VWS V13.01,2013-08-09 18:34:00,
2013-08-09 14:40:00,72.0,65.5,29.87,WNW,290,2.0,7.0,80,0.00,,CLR,0.05,VWS V13.01,2013-08-09 18:40:00,
2013-08-09 14:45:00,72.1,65.2,29.87,WNW,294,0.0,7.0,79,0.00,,CLR,0.05,VWS V13.01,2013-08-09 18:45:00,
2013-08-09 14:50:00,72.2,65.7,29.87,NW,304,1.0,7.0,80,0.00,,CLR,0.05,VWS V13.01,2013-08-09 18:50:00,
2013-08-09 14:55:00,72.3,66.5,29.87,NNW,339,1.0,7.0,82,0.00,,CLR,0.05,VWS V13.01,2013-08-09 18:55:00,
2013-08-09 15:00:00,72.4,66.2,29.87,North,355,0.0,7.0,81,0.00,,CLR,0.05,VWS V13.01,2013-08-09 19:00:00,
2013-08-09 15:05:00,72.6,66.8,29.86,WSW,246,0.0,4.0,82,0.00,,CLR,0.05,VWS V13.01,2013-08-09 19:05:00,
2013-08-09 15:10:00,72.8,66.6,29.86,West,269,0.0,6.0,81,0.00,,CLR,0.05,VWS V13.01,2013-08-09 19:10:00,
2013-08-09 15:15:00,73.1,66.9,29.87,NNE,26,0.0,6.0,81,0.00,,CLR,0.05,VWS V13.01,2013-08-09 19:15:00,
2013-08-09 15:20:00,73.3,66.8,29.87,WSW,246,1.0,6.0,80,0.00,,CLR,0.05,VWS V13.01,2013-08-09 19:20:00,
2013-08-09 15:25:00,73.6,67.4,29.87,NNW,331,0.0,6.0,81,0.00,,CLR,0.05,VWS V13.01,2013-08-09 19:25:00,
2013-08-09 15:30:00,73.9,67.0,29.87,WNW,296,0.0,6.0,79,0.00,,CLR,0.05,VWS V13.01,2013-08-09 19:30:00,
2013-08-09 15:35:00,74.2,67.6,29.87,West,278,0.0,3.0,80,0.00,,CLR,0.05,VWS V13.01,2013-08-09 19:35:00,
2013-08-09 15:40:00,74.4,67.1,29.87,SW,223,3.0,3.0,78,0.00,,CLR,0.05,VWS V13.01,2013-08-09 19:40:00,
2013-08-09 15:45:00,74.6,67.3,29.87,West,272,3.0,4.0,78,0.00,,CLR,0.05,VWS V13.01,2013-08-09 19:45:00,
2013-08-09 15:50:00,74.8,67.5,29.87,North,360,2.0,4.0,78,0.00,,CLR,0.05,VWS V13.01,2013-08-09 19:50:00,
2013-08-09 15:55:00,74.9,67.2,29.87,West,261,4.0,9.0,77,0.00,,CLR,0.05,VWS V13.01,2013-08-09 19:55:00,
2013-08-09 16:00:00,74.9,67.2,29.87,WNW,300,2.0,9.0,77,0.00,,CLR,0.05,VWS V13.01,2013-08-09 20:00:00,
2013-08-09 16:05:00,74.9,66.8,29.87,SW,227,0.0,3.0,76,0.00,,CLR,0.05,VWS V13.01,2013-08-09 20:05:00,
2013-08-09 16:10:00,75.0,67.3,29.87,WNW,288,2.0,7.0,77,0.00,,CLR,0.05,VWS V13.01,2013-08-09 20:10:00,
2013-08-09 16:15:00,74.9,67.6,29.87,West,260,0.0,7.0,78,0.00,,CLR,0.05,VWS V13.01,2013-08-09 20:15:00,
2013-08-09 16:20:00,74.9,67.2,29.87,North,11,4.0,7.0,77,0.00,,CLR,0.05,VWS V13.01,2013-08-09 20:20:00,
2013-08-09 16:25:00,74.6,66.9,29.87,NNW,346,3.0,7.0,77,0.00,,CLR,0.05,VWS V13.01,2013-08-09 20:25:00,
2013-08-09 16:30:00,74.4,66.3,29.87,WSW,245,0.0,7.0,76,0.00,,CLR,0.05,VWS V13.01,2013-08-09 20:30:00,
2013-08-09 16:35:00,74.4,66.3,29.87,NNW,341,0.0,4.0,76,0.00,,CLR,0.05,VWS V13.01,2013-08-09 20:35:00,
2013-08-09 16:40:00,74.4,66.0,29.87,WNW,296,0.0,4.0,75,0.00,,CLR,0.05,VWS V13.01,2013-08-09 20:40:00,
2013-08-09 16:45:00,74.5,66.4,29.87,NNE,27,0.0,6.0,76,0.00,,CLR,0.05,VWS V13.01,2013-08-09 20:45:00,
2013-08-09 16:50:00,74.8,67.5,29.87,WNW,290,0.0,6.0,78,0.00,,CLR,0.05,VWS V13.01,2013-08-09 20:50:00,
2013-08-09 16:55:00,74.8,66.7,29.88,WNW,294,1.0,6.0,76,0.00,,CLR,0.05,VWS V13.01,2013-08-09 20:55:00,
2013-08-09 17:00:00,74.4,66.3,29.87,NW,305,3.0,6.0,76,0.00,,CLR,0.05,VWS V13.01,2013-08-09 21:00:00,
2013-08-09 17:05:00,74.1,65.3,29.88,West,280,0.0,3.0,74,0.00,,CLR,0.05,VWS V13.01,2013-08-09 21:05:00,
2013-08-09 17:10:00,74.2,65.4,29.88,West,274,0.0,4.0,74,0.00,,CLR,0.05,VWS V13.01,2013-08-09 21:10:00,
2013-08-09 17:15:00,74.2,65.4,29.88,SW,216,0.0,4.0,74,0.00,,CLR,0.05,VWS V13.01,2013-08-09 21:15:00,
2013-08-09 17:20:00,74.4,64.8,29.87,SW,223,1.0,4.0,72,0.00,,CLR,0.05,VWS V13.01,2013-08-09 21:20:00,
2013-08-09 17:25:00,74.4,63.2,29.87,SW,228,0.0,6.0,68,0.00,,CLR,0.05,VWS V13.01,2013-08-09 21:25:00,
2013-08-09 17:30:00,74.5,64.1,29.88,WSW,242,0.0,6.0,70,0.00,,CLR,0.05,VWS V13.01,2013-08-09 21:30:00,
2013-08-09 17:35:00,74.5,63.7,29.88,WSW,242,1.0,1.0,69,0.00,,CLR,0.05,VWS V13.01,2013-08-09 21:35:00,
2013-08-09 17:40:00,74.1,62.9,29.87,WSW,242,0.0,3.0,68,0.00,,CLR,0.05,VWS V13.01,2013-08-09 21:40:00,
2013-08-09 17:45:00,73.4,61.8,29.88,NW,313,1.0,3.0,67,0.00,,CLR,0.05,VWS V13.01,2013-08-09 21:45:00,
2013-08-09 17:50:00,72.7,61.5,29.88,NNW,331,0.0,3.0,68,0.00,,CLR,0.05,VWS V13.01,2013-08-09 21:50:00,
2013-08-09 17:55:00,72.2,62.3,29.88,West,272,0.0,3.0,71,0.00,,CLR,0.05,VWS V13.01,2013-08-09 21:55:00,
2013-08-09 18:00:00,71.8,60.7,29.88,NW,306,0.0,3.0,68,0.00,,CLR,0.05,VWS V13.01,2013-08-09 22:00:00,
2013-08-09 18:05:00,71.4,61.1,29.88,WSW,238,1.0,2.0,70,0.00,,CLR,0.05,VWS V13.01,2013-08-09 22:05:00,
2013-08-09 18:10:00,71.3,60.6,29.88,North,355,0.0,6.0,69,0.00,,CLR,0.05,VWS V13.01,2013-08-09 22:10:00,
2013-08-09 18:15:00,71.2,60.5,29.88,West,267,0.0,6.0,69,0.00,,CLR,0.05,VWS V13.01,2013-08-09 22:15:00,
2013-08-09 18:20:00,71.2,60.5,29.88,WSW,254,0.0,6.0,69,0.00,,CLR,0.05,VWS V13.01,2013-08-09 22:20:00,
2013-08-09 18:25:00,71.0,59.9,29.89,SW,221,0.0,6.0,68,0.00,,CLR,0.05,VWS V13.01,2013-08-09 22:25:00,
2013-08-09 18:30:00,70.9,59.0,29.89,SW,221,0.0,6.0,66,0.00,,CLR,0.05,VWS V13.01,2013-08-09 22:30:00,
2013-08-09 18:35:00,70.9,59.4,29.88,SW,221,0.0,1.0,67,0.00,,CLR,0.05,VWS V13.01,2013-08-09 22:35:00,
2013-08-09 18:40:00,70.8,60.5,29.88,West,263,0.0,1.0,70,0.00,,CLR,0.05,VWS V13.01,2013-08-09 22:40:00,
2013-08-09 18:45:00,70.7,60.0,29.88,West,263,0.0,2.0,69,0.00,,CLR,0.05,VWS V13.01,2013-08-09 22:45:00,
2013-08-09 18:50:00,70.4,58.5,29.88,WSW,242,0.0,4.0,66,0.00,,CLR,0.05,VWS V13.01,2013-08-09 22:50:00,
2013-08-09 18:55:00,70.3,58.4,29.88,SW,227,0.0,4.0,66,0.00,,CLR,0.05,VWS V13.01,2013-08-09 22:55:00,
2013-08-09 19:00:00,70.1,58.7,29.88,WSW,240,0.0,0.0,67,0.00,,CLR,0.05,VWS V13.01,2013-08-09 23:00:00,
2013-08-09 19:05:00,69.9,58.5,29.88,WSW,240,0.0,1.0,67,0.00,,CLR,0.05,VWS V13.01,2013-08-09 23:05:00,
2013-08-09 19:11:00,69.9,58.5,29.88,SW,221,0.0,4.0,67,0.00,,CLR,0.05,VWS V13.01,2013-08-09 23:11:00,
2013-08-09 19:16:00,69.8,58.8,29.89,SW,221,0.0,4.0,68,0.00,,CLR,0.05,VWS V13.01,2013-08-09 23:16:00,
2013-08-09 19:21:00,69.6,58.6,29.89,SW,223,0.0,4.0,68,0.00,,CLR,0.05,VWS V13.01,2013-08-09 23:21:00,
2013-08-09 19:26:00,69.5,58.5,29.89,SW,226,0.0,4.0,68,0.00,,CLR,0.05,VWS V13.01,2013-08-09 23:26:00,
2013-08-09 19:31:00,69.4,58.8,29.89,SW,226,0.0,0.0,69,0.00,,CLR,0.05,VWS V13.01,2013-08-09 23:31:00,
2013-08-09 19:36:00,69.2,58.6,29.90,WNW,289,0.0,4.0,69,0.00,,CLR,0.05,VWS V13.01,2013-08-09 23:36:00,
2013-08-09 19:41:00,69.0,58.4,29.90,WNW,289,0.0,4.0,69,0.00,,CLR,0.05,VWS V13.01,2013-08-09 23:41:00,
2013-08-09 19:46:00,68.8,59.0,29.90,WNW,289,0.0,4.0,71,0.00,,CLR,0.05,VWS V13.01,2013-08-09 23:46:00,
2013-08-09 19:51:00,68.5,59.1,29.90,WNW,289,0.0,4.0,72,0.00,,CLR,0.05,VWS V13.01,2013-08-09 23:51:00,
2013-08-09 19:56:00,68.0,58.7,29.90,WNW,289,0.0,4.0,72,0.00,,CLR,0.05,VWS V13.01,2013-08-09 23:56:00,
2013-08-09 20:01:00,67.6,59.0,29.90,WNW,289,0.0,0.0,74,0.00,,CLR,0.05,VWS V13.01,2013-08-10 00:01:00,
2013-08-09 20:06:00,67.2,58.6,29.91,WNW,289,0.0,0.0,74,0.00,,CLR,0.05,VWS V13.01,2013-08-10 00:06:00,
2013-08-09 20:11:00,66.8,58.6,29.91,WNW,289,0.0,0.0,75,0.00,,CLR,0.05,VWS V13.01,2013-08-10 00:11:00,
2013-08-09 20:16:00,66.5,58.7,29.91,WNW,289,0.0,0.0,76,0.00,,CLR,0.05,VWS V13.01,2013-08-10 00:16:00,
2013-08-09 20:21:00,66.1,58.3,29.91,WNW,289,0.0,0.0,76,0.00,,CLR,0.05,VWS V13.01,2013-08-10 00:21:00,
2013-08-09 20:26:00,65.9,58.5,29.91,WNW,289,0.0,0.0,77,0.00,,CLR,0.05,VWS V13.01,2013-08-10 00:26:00,
2013-08-09 20:31:00,65.6,58.2,29.91,WNW,289,0.0,0.0,77,0.00,,CLR,0.05,VWS V13.01,2013-08-10 00:31:00,
2013-08-09 20:36:00,65.3,57.9,29.91,WNW,289,0.0,0.0,77,0.00,,CLR,0.05,VWS V13.01,2013-08-10 00:36:00,
2013-08-09 20:41:00,65.0,58.0,29.91,WNW,289,0.0,0.0,78,0.00,,CLR,0.05,VWS V13.01,2013-08-10 00:41:00,
2013-08-09 20:46:00,64.9,58.2,29.91,WNW,289,0.0,0.0,79,0.00,,CLR,0.05,VWS V13.01,2013-08-10 00:46:00,
2013-08-09 20:51:00,64.8,58.1,29.91,WNW,289,0.0,1.0,79,0.00,,CLR,0.05,VWS V13.01,2013-08-10 00:51:00,
2013-08-09 20:56:00,64.7,58.4,29.91,WNW,289,0.0,1.0,80,0.00,,CLR,0.05,VWS V13.01,2013-08-10 00:56:00,
2013-08-09 21:01:00,64.6,58.3,29.91,WNW,289,0.0,0.0,80,0.00,,CLR,0.05,VWS V13.01,2013-08-10 01:01:00,
2013-08-09 21:06:00,64.5,58.2,29.91,WNW,289,0.0,0.0,80,0.00,,CLR,0.05,VWS V13.01,2013-08-10 01:06:00,
2013-08-09 21:11:00,64.4,58.1,29.91,WNW,289,0.0,0.0,80,0.00,,CLR,0.05,VWS V13.01,2013-08-10 01:11:00,
2013-08-09 21:16:00,64.2,57.9,29.92,WNW,289,0.0,0.0,80,0.00,,CLR,0.05,VWS V13.01,2013-08-10 01:16:00,
2013-08-09 21:21:00,64.0,58.1,29.92,WNW,289,0.0,0.0,81,0.00,,CLR,0.05,VWS V13.01,2013-08-10 01:21:00,
2013-08-09 21:26:00,63.8,57.9,29.92,WNW,289,0.0,0.0,81,0.00,,CLR,0.05,VWS V13.01,2013-08-10 01:26:00,
2013-08-09 21:31:00,63.6,58.0,29.92,WNW,289,0.0,0.0,82,0.00,,CLR,0.05,VWS V13.01,2013-08-10 01:31:00,
2013-08-09 21:36:00,63.5,58.2,29.93,WNW,289,0.0,0.0,83,0.00,,CLR,0.05,VWS V13.01,2013-08-10 01:36:00,
2013-08-09 21:41:00,63.5,58.2,29.93,WNW,289,0.0,0.0,83,0.00,,CLR,0.05,VWS V13.01,2013-08-10 01:41:00,
2013-08-09 21:46:00,63.4,58.2,29.93,WNW,289,0.0,0.0,83,0.00,,CLR,0.05,VWS V13.01,2013-08-10 01:46:00,
2013-08-09 21:51:00,63.4,58.5,29.93,WNW,289,0.0,1.0,84,0.00,,CLR,0.05,VWS V13.01,2013-08-10 01:51:00,
2013-08-09 21:56:00,63.4,58.5,29.93,WNW,289,0.0,1.0,84,0.00,,CLR,0.05,VWS V13.01,2013-08-10 01:56:00,
2013-08-09 22:01:00,63.4,58.2,29.93,WNW,289,0.0,0.0,83,0.00,,CLR,0.05,VWS V13.01,2013-08-10 02:01:00,
2013-08-09 22:06:00,63.4,58.5,29.93,North,5,0.0,1.0,84,0.00,,CLR,0.05,VWS V13.01,2013-08-10 02:06:00,
2013-08-09 22:11:00,63.4,58.5,29.93,North,5,0.0,1.0,84,0.00,,CLR,0.05,VWS V13.01,2013-08-10 02:11:00,
2013-08-09 22:16:00,63.4,58.2,29.93,North,5,0.0,1.0,83,0.00,,CLR,0.05,VWS V13.01,2013-08-10 02:16:00,
2013-08-09 22:21:00,63.3,58.1,29.93,North,5,0.0,1.0,83,0.00,,CLR,0.05,VWS V13.01,2013-08-10 02:21:00,
2013-08-09 22:26:00,63.3,58.4,29.93,North,5,0.0,1.0,84,0.00,,CLR,0.05,VWS V13.01,2013-08-10 02:26:00,
2013-08-09 22:31:00,63.2,58.0,29.93,North,5,0.0,0.0,83,0.00,,CLR,0.05,VWS V13.01,2013-08-10 02:31:00,
2013-08-09 22:36:00,63.2,58.0,29.93,North,5,0.0,0.0,83,0.00,,CLR,0.05,VWS V13.01,2013-08-10 02:36:00,
2013-08-09 22:41:00,63.1,57.9,29.93,North,5,0.0,1.0,83,0.00,,CLR,0.05,VWS V13.01,2013-08-10 02:41:00,
2013-08-09 22:46:00,63.0,57.8,29.93,North,5,0.0,1.0,83,0.00,,CLR,0.05,VWS V13.01,2013-08-10 02:46:00,
2013-08-09 22:51:00,63.1,57.9,29.93,North,5,0.0,1.0,83,0.00,,CLR,0.05,VWS V13.01,2013-08-10 02:51:00,
2013-08-09 22:56:00,63.0,58.1,29.93,North,5,0.0,1.0,84,0.00,,CLR,0.05,VWS V13.01,2013-08-10 02:56:00,
2013-08-09 23:01:00,62.9,58.0,29.93,North,5,0.0,0.0,84,0.00,,CLR,0.05,VWS V13.01,2013-08-10 03:01:00,
2013-08-09 23:06:00,62.9,58.0,29.92,North,5,0.0,1.0,84,0.00,,CLR,0.05,VWS V13.01,2013-08-10 03:06:00,
2013-08-09 23:11:00,62.9,58.0,29.93,North,5,0.0,1.0,84,0.00,,CLR,0.05,VWS V13.01,2013-08-10 03:11:00,
2013-08-09 23:16:00,62.9,58.0,29.93,North,5,0.0,1.0,84,0.00,,CLR,0.05,VWS V13.01,2013-08-10 03:16:00,
2013-08-09 23:21:00,62.9,58.0,29.93,North,5,0.0,1.0,84,0.00,,CLR,0.05,VWS V13.01,2013-08-10 03:21:00,
2013-08-09 23:26:00,62.7,57.8,29.93,North,5,0.0,1.0,84,0.00,,CLR,0.05,VWS V13.01,2013-08-10 03:26:00,
2013-08-09 23:31:00,62.7,57.8,29.94,North,5,0.0,0.0,84,0.00,,CLR,0.05,VWS V13.01,2013-08-10 03:31:00,
2013-08-09 23:36:00,62.6,57.7,29.94,North,5,0.0,1.0,84,0.00,,CLR,0.05,VWS V13.01,2013-08-10 03:36:00,
2013-08-09 23:41:00,62.6,57.7,29.94,North,5,0.0,1.0,84,0.00,,CLR,0.05,VWS V13.01,2013-08-10 03:41:00,
2013-08-09 23:46:00,62.6,57.7,29.94,North,5,0.0,1.0,84,0.00,,CLR,0.05,VWS V13.01,2013-08-10 03:46:00,
2013-08-09 23:51:00,62.6,57.7,29.94,North,5,0.0,1.0,84,0.00,,CLR,0.05,VWS V13.01,2013-08-10 03:51:00,
2013-08-09 23:56:00,62.6,57.4,29.94,North,5,0.0,1.0,83,0.00,,CLR,0.05,VWS V13.01,2013-08-10 03:56:00,